カタログに戻る

AEROCUBE 5C

運用中科学LEO
NORAD 40965·PAYLOAD·🇺🇸 United States

打ち上げ Oct 8, 2015 から Vandenberg Space Force Base

Loading…

次のパス (今後24時間)

TLE

最新Source: Space-Track

元期: Sep 13, 2026, 16:01 UTC

1 40965U 15058B   26256.66777544  .00001365  00000-0  12755-3 0  9998
2 40965  64.7678 347.2298 0137579  29.8605 331.0265 14.91861167378856

AllMySatでAEROCUBE 5Cをリアルタイム追跡

Download on the App Store